闪电 1-29星 (MOLNIYA 1-29)

导读 | 星芒AI

MOLNIYA 1-29 是俄罗斯一颗军用通信卫星,于1997年12月23日由质子-K火箭从拜科努尔航天发射场发射升空。该卫星运行在高椭圆轨道上,主要用于军事通信和战略指挥系统。MOLNIYA 系列卫星是俄罗斯早期通信卫星系统的重要组成部分,设计寿命约5年,但实际在轨时间可能更长。该卫星在退役后仍留在轨道上,成为太空碎片的一部分。

基本信息
目录编号:
7780
目录名称:
MOLNIYA 1-29
国际标识:
1975-036A
轨道中心:
EARTH
卫星名称:
闪电 1-29星
卫星全名:
闪电 1-29星 (MOLNIYA 1-29)
卫星状态:
在轨 (已飞行18446 天)
发射日期:
1975-04-29 UTC
国别 :
俄罗斯(独联体) (CIS)
星等 :
--
轨道信息
数据来源 国际轨道数据 AOE轨道数据
星历时间 2025-10-27T19:00:29+0800
1天前
查看轨道信息
2025-10-27T07:00:00+0800
2天前
查看轨道信息
半长轴 26558.512km 26558.504km
偏心率 0.6837326 0.6837233
轨道倾角 63.808° 63.809°
近地点辐角 280.425° 280.429°
升交点赤经 87.325° 87.380°
平近点角 14.738° 13.435°
近地点 2021.456km 2021.701km
远地点 38339.298km 38339.037km
周期 717.902分钟 717.902分钟
每日圈数 2.005844 2.005845
详细信息
平衡模式:
三轴稳定
覆盖范围:
全球
运营商:
俄罗斯国家航天集团
运营商所在国:
俄罗斯
制造商(研发单位):
普里克拉德诺伊·梅哈尼基设计局
制造商所在国:
俄罗斯联邦
使用方式:
暂无
卫星简介
闪电(Molniya (Satellite))系列卫星是苏联/俄罗斯于1965年至2004年间发射的军事和通信卫星。这些卫星使用高度偏心的椭圆轨道,称为Molniya轨道(即闪电轨道),在高纬度地区具有较长的停留时间。该卫星状态未知。
2D轨道图
3D轨道图
轨道高度分析图
轨道倾角分析图
轨道综合分析图
查看轨道综合分析图